Weather History for KSDF - March, 2013

Change the Weather History Date:

Thursday, March 7, 2013

  Actual Average Record
Temperature  
Mean Temperature 36 °F 45 °F  
Max Temperature 39 °F 55 °F 81 °F (1974)
Min Temperature 32 °F 35 °F 3 °F (1899)
Degree Days  
Heating Degree Days 29 20  
Month to date heating degree days 211 149  
Since 1 July heating degree days 3293 3390  
Cooling Degree Days 0 0  
Month to date cooling degree days 0 0  
Year to date cooling degree days 0 0  
Moisture  
Dew Point 27 °F    
Average Humidity 72    
Maximum Humidity 85    
Minimum Humidity 59    
Precipitation  
Precipitation T in 0.13 in 1.94 in (1956)
Month to date precipitation 0.51 0.86  
Year to date precipitation 7.53 7.28  
Snow  
Snow T in 0.10 in 4.30 in (2008)
Month to date snowfall 1.0 0.5  
Since 1 July snowfall 9.1 11.5  
Snow Depth 0.00 in    
Sea Level Pressure  
Sea Level Pressure 30.37 in    
Wind  
Wind Speed 5 mph (NW)    
Max Wind Speed 10 mph    
Max Gust Speed 13 mph    
Visibility 8 miles    
Events Snow    
T = Trace of Precipitation, MM = Missing Value Source: NWS Daily Summary

Daily Weather History Graph

Daily Weather History Graph

Search for Another Location

Airport or City:

Trip Planner

Search our weather history database for the weather conditions in past years. The results will help you decide how hot, cold, wet, or windy it might be!

Date:

Astronomy

Mar. 07, 2013 Rise Set
Actual Time 7:05 AM EST 6:42 PM EST
Civil Twilight 6:39 AM EST 7:08 PM EST
Nautical Twilight 6:08 AM EST 7:39 PM EST
Astronomical Twilight 5:38 AM EST 8:10 PM EST
Moon 4:01 AM EST (3/7) 2:32 PM EST (3/7)
Length of Visible Light 12h 29m
Length of Day
11h 36m
Waning Crescent, 20% of the Moon is Illuminated
Mar 7
Waning Crescent
Mar 11
New
Mar 19
First Quarter
Mar 27
Full
Apr 3
Last Quarter

Hourly Weather History & Observations

Time (EST) Temp. Windchill Dew Point Humidity Pressure Visibility Wind Dir Wind Speed Gust Speed Precip Events Conditions
12:56 AM 33.1 °F 27.7 °F 26.1 °F 75% 30.30 in 10.0 mi NW 5.8 mph - N/A   Overcast
1:56 AM 33.1 °F 26.1 °F 27.0 °F 78% 30.32 in 10.0 mi West 8.1 mph - N/A   Overcast
2:56 AM 32.0 °F 27.5 °F 27.0 °F 82% 30.32 in 10.0 mi West 4.6 mph - N/A   Overcast
3:56 AM 32.0 °F 27.5 °F 27.0 °F 82% 30.32 in 10.0 mi NW 4.6 mph - N/A   Overcast
4:56 AM 32.0 °F 26.4 °F 28.0 °F 85% 30.34 in 8.0 mi WNW 5.8 mph - N/A   Overcast
5:13 AM 32.0 °F 26.4 °F 28.4 °F 87% 30.33 in 8.0 mi WNW 5.8 mph - N/A   Overcast
5:33 AM 32.0 °F 27.5 °F 28.4 °F 87% 30.33 in 8.0 mi NW 4.6 mph - N/A   Overcast
5:56 AM 32.0 °F 27.5 °F 28.0 °F 85% 30.35 in 8.0 mi NW 4.6 mph - N/A   Overcast
6:04 AM 32.0 °F 26.4 °F 28.4 °F 87% 30.34 in 9.0 mi NW 5.8 mph - N/A   Overcast
6:56 AM 32.0 °F 27.5 °F 28.0 °F 85% 30.36 in 8.0 mi NW 4.6 mph - N/A   Overcast
7:13 AM 32.0 °F 27.5 °F 28.4 °F 87% 30.36 in 8.0 mi WNW 4.6 mph - N/A   Overcast
7:22 AM 32.0 °F 27.5 °F 28.4 °F 87% 30.36 in 8.0 mi WNW 4.6 mph - N/A   Overcast
7:32 AM 32.0 °F 27.5 °F 28.4 °F 87% 30.36 in 7.0 mi West 4.6 mph - N/A   Overcast
7:56 AM 32.0 °F 27.5 °F 28.0 °F 85% 30.38 in 6.0 mi West 4.6 mph - 0.00 in Snow Light Snow
8:30 AM 33.8 °F 30.8 °F 28.4 °F 81% 30.38 in 5.0 mi NW 3.5 mph - 0.00 in Snow Light Snow
8:56 AM 33.1 °F 28.7 °F 28.9 °F 85% 30.40 in 5.0 mi WNW 4.6 mph - 0.00 in Snow Light Snow
9:31 AM 33.8 °F 30.8 °F 28.4 °F 81% 30.39 in 5.0 mi West 3.5 mph - 0.00 in Snow Light Snow
9:56 AM 34.0 °F 31.0 °F 28.0 °F 79% 30.40 in 5.0 mi West 3.5 mph - 0.00 in Snow Light Snow
10:17 AM 33.8 °F 29.6 °F 28.4 °F 81% 30.39 in 5.0 mi West 4.6 mph - 0.00 in Snow Light Snow
10:56 AM 35.1 °F 31.0 °F 28.9 °F 78% 30.41 in 5.0 mi NW 4.6 mph - 0.00 in Snow Light Snow
11:22 AM 35.6 °F 32.8 °F 28.4 °F 75% 30.39 in 6.0 mi NW 3.5 mph - 0.00 in Snow Light Snow
11:30 AM 35.6 °F 32.8 °F 28.4 °F 75% 30.39 in 6.0 mi Variable 3.5 mph - 0.00 in Snow Light Snow
11:56 AM 37.0 °F 34.5 °F 28.9 °F 73% 30.41 in 6.0 mi NNW 3.5 mph - 0.00 in Snow Light Snow
12:56 PM 37.0 °F - 28.9 °F 73% 30.40 in 8.0 mi Calm Calm - 0.00 in   Overcast
1:56 PM 37.9 °F 35.5 °F 27.0 °F 65% 30.38 in 10.0 mi NNW 3.5 mph - N/A   Overcast
2:56 PM 37.9 °F 34.4 °F 27.0 °F 65% 30.38 in 10.0 mi North 4.6 mph - N/A   Overcast
3:56 PM 37.9 °F 34.4 °F 27.0 °F 65% 30.38 in 10.0 mi NNW 4.6 mph - N/A   Overcast
4:56 PM 37.9 °F 34.4 °F 27.0 °F 65% 30.38 in 10.0 mi NNW 4.6 mph - N/A   Overcast
5:56 PM 37.9 °F 32.1 °F 26.1 °F 62% 30.39 in 10.0 mi North 8.1 mph - N/A   Overcast
6:56 PM 37.0 °F 32.4 °F 26.1 °F 65% 30.40 in 10.0 mi NNE 5.8 mph - N/A   Overcast
7:56 PM 37.0 °F 34.5 °F 25.0 °F 62% 30.41 in 10.0 mi NNE 3.5 mph - N/A   Overcast
8:56 PM 37.0 °F 33.3 °F 25.0 °F 62% 30.41 in 10.0 mi NE 4.6 mph - N/A   Overcast
9:56 PM 37.0 °F 34.5 °F 26.1 °F 65% 30.41 in 10.0 mi NNE 3.5 mph - N/A   Overcast
10:56 PM 37.0 °F 32.4 °F 26.1 °F 65% 30.41 in 10.0 mi NE 5.8 mph - N/A   Overcast
11:56 PM 36.0 °F 32.1 °F 26.1 °F 67% 30.40 in 10.0 mi East 4.6 mph - N/A   Overcast